sat.trackr.live / text

‹ back to catalog

STARLINK-5860

NORAD 57052 · 2023-088E

PAYLOAD ACTIVE UNKNOWN

§ Identity

Operator
Country
US
Launch date
2023-06-22
Launch site
AFWTR
Launch vehicle
Mass (kg)
RCS (m²)

Purposes: comms

External: N2YO · Heavens-Above · Gunter

§ Orbital elements

Epoch: 2026-09-20T22:03:33.221664Z

Period
94.27 min
Inclination
43.0031°
Eccentricity
0.0001466
Mean motion
15.27571937 rev/d
Perigee alt
482.1 km
Apogee alt
484.1 km
Semi-major
6,861.2 km
B*
6.9527e-5
RAAN
87.8218°
Arg perigee
271.6425°
Mean anomaly
88.4259°
Rev number
18,019

§ Raw data

STARLINK-58601 57052U 23088E   26263.91913451  .00001651  00000+0  69527-4 0  99972 57052  43.0031  87.8218 0001466 271.6425  88.4259 15.27571937180192

JSON: /api/v1/satellites/57052 · /tle

For live sub-satellite position, see the globe view (requires WebGL).

§ Visibility from observer

Set your observer location to see the next 7 days of passes ≥ 10°. The values pass through the URL so the page stays shareable.

No JS? Fill the form by hand. The geolocation button needs JavaScript.